Simultaneous Nadir Overpasses (SNOs) Predictions

Prediction of SNOs between METOP-C and LANDSAT-8 Satellite Orbit:

Table of predicted SNOs for the next 14.0 days since TLE Epoch: 5/25/2019
Index Date (METOP-C) Time (METOP-C) Lat,Lon (METOP-C) SZA (METOP-C ) Date (LANDSAT-8) Time (LANDSAT-8) Lat,Lon (LANDSAT-8) SZA (LANDSAT-8 ) Distance(km) Time Diff (sec)
1 05/26/2019 23:34:54 81.12,-133.98 62.13 05/26/2019 23:35:13 81.12,-133.86 62.15 2.06 19
2 05/27/2019 00:25:34 -81.14, 34.02 117.79 05/27/2019 00:24:39 -81.14, 34.16 117.80 2.28 55
3 05/29/2019 19:09:15 81.14, -67.04 61.74 05/29/2019 19:09:28 81.14, -67.18 61.73 2.39 13
4 05/29/2019 19:59:55 -81.16, 101.01 118.18 05/29/2019 19:58:54 -81.16, 100.86 118.22 2.52 61
5 06/01/2019 14:43:39 81.13, -0.85 61.30 06/01/2019 14:43:45 81.13, -0.89 61.30 0.73 6
6 06/01/2019 15:34:19 -81.15, 167.23 118.61 06/01/2019 15:33:11 -81.15, 167.17 118.65 1.06 68
7 06/04/2019 09:27:24 -81.12,-102.19 119.12 06/04/2019 09:28:36 -81.12,-102.23 119.09 0.80 72
8 06/04/2019 10:18:02 81.14, 65.73 60.96 06/04/2019 10:18:01 81.14, 65.74 60.96 0.55 1
9 06/04/2019 11:08:10 -81.34,-113.72 117.38 06/04/2019 11:06:56 -81.69,-114.01 117.26 38.96 74
10 06/07/2019 05:01:47 -81.11, -35.97 119.46 06/07/2019 05:02:52 -81.11, -35.98 119.43 0.36 65




NCC Satellite Simultaneous Nadir Overpasses (SNOs) Prediction Service
